FW6369 Weather Reports


Display with metric or nautical units.
time (UTC)temp
F
wind
direction
speed
MPH
gust
MPH
rain 1hr
in
rain 24hr
in
rain mn
in
humidity
%
barometer
mb
20260904184609 68 0 0.0 4.0 0.00 0.00 0.00 70 1014.6
20260904183102 67 0 0.0 2.0 0.00 0.00 0.00 70 1014.6
20260904181602 66 0 0.0 3.0 0.00 0.00 0.00 73 1014.6
20260904180059 66 0 0.0 2.0 0.00 0.00 0.00 74 1014.7
20260904174605 65 0 0.0 1.0 0.00 0.00 0.00 78 1014.6
20260904173103 63 185 0.0 3.0 0.00 0.00 0.00 78 1014.6
20260904171604 62 0 0.0 2.0 0.00 0.00 0.00 83 1014.4
20260904170057 61 0 0.0 4.0 0.00 0.00 0.00 89 1014.5
20260904164605 59 0 0.0 2.0 0.00 0.00 0.00 96 1014.5
20260904163101 59 0 0.0 0.0 0.00 0.00 0.00 98 1014.4
20260904161556 56 179 0.0 2.0 0.00 0.00 0.00 96 1014.3
20260904160059 56 0 0.0 0.0 0.00 0.00 0.00 97 1014.4
20260904154602 55 0 0.0 0.0 0.00 0.00 0.00 97 1014.3
20260904153101 55 0 0.0 0.0 0.00 0.00 0.00 97 1014.2
20260904151600 54 0 0.0 0.0 0.00 0.00 0.00 97 1014.2
20260904150110 54 0 0.0 0.0 0.00 0.00 0.00 97 1014.1
20260904144603 53 0 0.0 0.0 0.00 0.00 0.00 97 1014.0
20260904143059 53 0 0.0 0.0 0.00 0.00 0.00 97 1013.8
20260904141559 53 0 0.0 0.0 0.00 0.00 0.00 97 1013.6
20260904140106 54 0 0.0 0.0 0.00 0.00 0.00 97 1013.7
20260904134604 54 0 0.0 0.0 0.00 0.00 0.00 97 1013.4
20260904133104 54 0 0.0 0.0 0.00 0.00 0.00 97 1013.3
20260904131601 54 0 0.0 0.0 0.00 0.00 0.00 97 1013.1
20260904130101 55 0 0.0 0.0 0.00 0.00 0.00 97 1013.0
20260904124609 55 0 0.0 0.0 0.00 0.00 0.00 97 1012.8
20260904123059 55 0 0.0 0.0 0.00 0.00 0.00 97 1012.7
20260904121552 55 0 0.0 0.0 0.00 0.00 0.00 97 1012.6
20260904114559 55 0 0.0 0.0 0.00 0.00 0.00 97 1012.5
20260904113056 55 0 0.0 0.0 0.00 0.00 0.00 97 1012.6
20260904111557 55 0 0.0 0.0 0.00 0.00 0.00 97 1012.5
20260904110105 55 0 0.0 0.0 0.00 0.00 0.00 97 1012.5
20260904104601 55 0 0.0 1.0 0.00 0.00 0.00 97 1012.4
20260904103057 55 0 0.0 0.0 0.00 0.00 0.00 97 1012.5
20260904101557 55 0 0.0 0.0 0.00 0.00 0.00 97 1012.5
20260904100115 55 0 0.0 1.0 0.00 0.00 0.00 97 1012.3
20260904094557 54 0 0.0 0.0 0.00 0.00 0.00 96 1012.2
20260904093107 54 0 0.0 0.0 0.00 0.00 0.00 96 1012.3
20260904091602 54 0 0.0 0.0 0.00 0.00 0.00 96 1012.3
20260904090103 54 0 0.0 0.0 0.00 0.00 0.00 96 1012.3
20260904084605 55 0 0.0 0.0 0.00 0.00 0.00 96 1012.1
20260904083102 55 0 0.0 0.0 0.00 0.00 0.00 96 1012.3
20260904081558 56 0 0.0 0.0 0.00 0.00 0.00 96 1012.2
20260904074614 56 0 0.0 0.0 0.00 0.00 0.00 95 1012.0
20260904073104 56 0 0.0 0.0 0.00 0.00 0.00 95 1012.1
20260904071602 57 0 0.0 0.0 0.00 0.00 0.00 95 1012.1
20260904070057 58 0 0.0 0.0 0.00 0.00 0.00 95 1012.0
20260904064555 58 0 0.0 0.0 0.00 0.00 0.00 95 1012.0
20260904063106 59 0 0.0 0.0 0.00 0.00 0.00 95 1012.0
20260904061600 59 0 0.0 0.0 0.00 0.00 0.00 95 1012.0
20260904060106 59 0 0.0 0.0 0.00 0.00 0.00 95 1012.0
20260904054602 59 0 0.0 0.0 0.00 0.00 0.00 95 1012.1
20260904053054 59 0 0.0 0.0 0.00 0.00 0.00 94 1012.2
20260904051608 60 0 0.0 0.0 0.00 0.00 0.00 94 1012.3
20260904050105 60 0 0.0 0.0 0.00 0.00 0.00 94 1012.3
20260904044557 60 0 0.0 0.0 0.00 0.00 0.00 94 1012.2
20260904043102 60 0 0.0 0.0 0.00 0.00 0.00 94 1012.2
20260904041603 60 0 0.0 1.0 0.00 0.00 0.00 94 1012.2
20260904034601 60 0 0.0 1.0 0.00 0.00 0.00 94 1012.1
20260904033102 60 0 0.0 1.0 0.00 0.00 0.00 94 1012.0
20260904031602 60 0 0.0 1.0 0.00 0.00 0.00 94 1011.9
20260904030059 60 0 0.0 1.0 0.00 0.00 0.00 94 1011.8
20260904024600 60 0 0.0 1.0 0.00 0.00 0.00 94 1011.9
20260904023056 60 0 0.0 1.0 0.00 0.00 0.00 94 1011.9
20260904021558 60 0 0.0 1.0 0.00 0.00 0.00 94 1012.0
20260904020100 60 0 0.0 1.0 0.00 0.00 0.00 93 1012.1
20260904014607 60 0 0.0 0.0 0.00 0.00 0.00 93 1012.3
20260904013056 60 0 0.0 1.0 0.00 0.00 0.00 93 1012.4
20260904011559 61 0 0.0 1.0 0.00 0.00 0.00 93 1012.3
20260904010114 61 0 0.0 1.0 0.00 0.00 0.00 93 1012.4
20260904004557 61 0 0.0 1.0 0.00 0.00 0.00 93 1012.4
20260904003106 61 0 0.0 1.0 0.00 0.00 0.00 93 1012.4
20260904001557 61 0 0.0 2.0 0.00 0.00 0.00 91 1012.6
20260903234600 63 348 0.0 1.0 0.00 0.00 0.00 92 1012.9
20260903233104 63 0 0.0 1.0 0.00 0.00 0.00 89 1012.9
20260903231557 64 0 0.0 0.0 0.00 0.00 0.00 87 1013.1
20260903230056 65 0 0.0 1.0 0.00 0.00 0.00 85 1013.2
20260903224555 66 0 0.0 1.0 0.00 0.00 0.00 83 1013.3
20260903223101 68 0 0.0 1.0 0.00 0.00 0.00 79 1013.2
20260903221602 68 248 0.0 3.0 0.00 0.00 0.00 77 1013.1
20260903220100 68 245 0.0 3.0 0.00 0.00 0.00 77 1013.1
20260903214554 68 0 0.0 3.0 0.00 0.00 0.00 76 1013.2
20260903213102 68 256 0.0 5.0 0.00 0.00 0.00 77 1013.3
20260903211557 68 0 0.0 3.0 0.00 0.00 0.00 78 1013.1
20260903210120 68 0 0.0 3.0 0.00 0.00 0.00 77 1013.3
20260903204613 68 0 0.0 3.0 0.00 0.00 0.00 81 1013.3
20260903203058 68 0 0.0 3.0 0.00 0.00 0.00 81 1013.3
20260903201557 67 0 0.0 4.0 0.00 0.00 0.00 86 1013.4
20260903194600 66 0 0.0 3.0 0.00 0.00 0.00 96 1013.7
20260903193102 66 0 0.0 2.0 0.00 0.00 0.00 97 1014.0
20260903191556 66 0 0.0 2.0 0.00 0.00 0.00 97 1014.2
20260903190057 65 0 0.0 2.0 0.00 0.00 0.00 97 1014.4